Weather Roundup
Issued by NWS Springfield, MO

Home | Current Version | Previous Version | Text Only | Print | Product List | Glossary On
Versions: 1 2 3 4 5 6 7 8 9 10 11 12 13 14 15 16 17 18 19 20 21 22 23 24 25 26 27 28 29 30 31 32 33 34 35 36 37 38 39 40 41 42 43 44 45 46 47 48 49 50
000
NZUS99 KSGF 201259
HRRSGF

HOURLY WEATHER
NATIONAL WEATHER SERVICE SPRINGFIELD MO
700 AM CST SAT DEC 20 2014

......SGF CWA......

CITY           SKY/WX    TMP DP  RH WIND       PRES   REMARKS
SPRINGFIELD    FOG       37  36  96 S5        30.21R VSB 1/4 WCI  33
JOPLIN         CLOUDY    37  35  92 SW5       30.24R WCI  33
WEST PLAINS    CLOUDY    34  31  88 SE3       30.24R
ROLLA          CLOUDY    35  33  92 S5        30.21R WCI  31
OSAGE BEACH    CLOUDY    37  34  87 SE3       30.22S
BRANSON        FOG       37  36  93 CALM      30.23R VSB 1/16

......SURROUNDING SGF CWA......

CITY           SKY/WX    TMP DP  RH WIND       PRES   REMARKS
CHANUTE        CLOUDY    36  33  89 SW6       30.22R WCI  31
PARSONS        CLOUDY    37  34  89 S3        30.24R
COFFEYVILLE    CLOUDY    37  34  89 S6        30.24R WCI  32
EMPORIA        MOCLDY    32  30  92 S14       30.16R WCI  22
SILOAM SPRINGS CLOUDY    39  34  81 NW3       30.24R VSB 1/2
HARRISON AR    FOG       37  37 100 SE3       30.22R VSB 1/4
NEAR YELLVILLE CLOUDY    36  32  87 CALM      30.24S

......KANSAS AND MISSOURI......

CITY           SKY/WX    TMP DP  RH WIND       PRES   REMARKS
KANSAS CTY INT CLOUDY    33  31  92 S10       30.17S WCI  25
DOWNTOWN KC    CLOUDY    35  30  82 S10       30.19F WCI  27
COLUMBIA       CLOUDY    35  34  96 SE6       30.22R FOG     WCI  30
SEDALIA        CLOUDY    38  37  97 SW3       30.22R FOG
ST JOSEPH      PTCLDY    33  29  85 S9        30.15F WCI  25
ST LOUIS       CLOUDY    36  27  69 SE6       30.26R WCI  31
SPIRIT OF STL  CLOUDY    35  29  78 CALM      30.26R
KIRKSVILLE     SNOW      33  33 100 SE6       30.20S VSB 1/4 WCI  28
WICHITA        PTCLDY    33  30  88 S10       30.17R FOG     WCI  25
TOPEKA         CLEAR     32  29  88 SE5       30.16F WCI  27
OLATHE         CLOUDY    33  30  88 SW6       30.18S WCI  28

......TENNESSEE......

CITY           SKY/WX    TMP DP  RH WIND       PRES   REMARKS
MEMPHIS        CLOUDY    39  32  76 E5        30.27R
NASHVILLE      PTCLDY    30  25  81 N5        30.28R WCI  25

......ARKANSAS.......

CITY           SKY/WX    TMP DP  RH WIND       PRES   REMARKS
FAYETTEVILLE   CLOUDY    39  38  96 CALM      30.23R
FT SMITH       CLOUDY    42  40  92 E3        30.26R FOG
LITTLE ROCK    CLOUDY    41  34  76 NE3       30.28R

......OKLAHOMA.......

CITY           SKY/WX    TMP DP  RH WIND       PRES   REMARKS
TULSA          CLOUDY    39  36  89 SE5       30.26R
PONCA CITY     CLOUDY    39  34  82 S5        30.21R
MCALESTER      CLOUDY    42  39  89 N6        30.25R FOG
OKLAHOMA CITY  CLOUDY    40  35  83 SE6       30.21S

......IOWA............

CITY           SKY/WX    TMP DP  RH WIND       PRES   REMARKS
DES MOINES     CLOUDY    32  28  85 S3        30.17S
QUAD CITIES    CLOUDY    29  24  82 E5        30.25S WCI  24

......ILLINOIS........

CITY           SKY/WX    TMP DP  RH WIND       PRES   REMARKS
QUINCY         CLOUDY    32  28  85 SE6       30.23S WCI  26
CHICAGO        CLOUDY    29  23  78 CALM      30.27S




USA.gov is the U.S. government's official web portal to all federal, state and local government web resources and services.